Theta_e
314 314 314 314 314 314 314 314 316 317 318 318 318 318 317 317 316 315 315 315 317 319 319 317 316 316 316 315 315 315 315 315 314 314 315 315 315 316 316 316 318 319 318 317 316 316 316 316 316 315 316 318 318 319 318 318 317 320 334 337 324 322 320 319 319 314 316 321 314 308 310 313 313 308 307 309 308 307 307 307 308 308 308 308 308 308 308 307
313 313 314 313 314 314 313 314 314 316 317 317 318 318 317 317 316 316 316 315 315 317 319 319 317 316 316 316 315 315 315 314 314 315 315 315 316 316 317 318 320 320 319 320 319 317 316 315 315 314 315 317 317 318 318 318 315 320 333 328 319 325 319 313 315 311 312 316 312 309 309 311 313 309 308 310 307 304 307 306 305 306 307 307 307 307 307 306
313 313 313 313 313 313 313 313 313 314 315 316 317 317 317 318 317 317 316 315 314 315 317 319 318 317 317 316 315 315 316 315 315 315 315 315 316 317 317 319 320 320 319 319 319 318 317 315 316 315 315 315 316 318 317 317 316 315 323 323 322 324 316 311 312 311 312 312 310 309 309 309 310 310 309 309 305 303 306 307 304 305 306 307 307 306 306 305
312 312 312 312 312 312 313 312 312 313 313 314 315 316 317 317 317 317 316 316 314 314 316 318 319 318 317 316 316 316 317 318 316 315 315 316 317 317 317 319 319 320 319 319 319 318 318 317 318 316 314 315 315 317 316 315 315 314 318 321 318 314 315 314 312 312 312 311 311 310 309 309 309 310 308 307 308 307 305 308 309 309 309 308 307 306 306 305
312 312 312 312 312 312 312 311 311 311 312 312 313 314 315 316 316 317 317 316 315 314 315 316 318 319 317 317 317 316 318 320 316 314 315 316 317 318 317 318 319 319 319 319 319 318 319 319 319 316 315 316 315 317 315 313 314 314 313 313 312 310 314 315 312 313 312 311 311 309 311 312 309 308 308 307 312 312 309 311 312 311 311 310 309 308 306 304
311 311 311 311 311 311 311 311 311 311 311 311 311 312 313 314 315 316 317 316 315 314 315 315 316 318 318 317 317 317 319 320 317 314 315 316 317 318 317 318 319 319 318 319 318 319 320 320 319 315 314 315 315 316 314 312 313 316 313 309 310 310 312 314 313 313 313 312 311 309 311 311 308 308 309 307 310 313 311 312 311 310 310 309 309 308 306 304
311 311 311 311 311 311 310 310 310 310 310 310 310 311 311 313 314 315 316 316 315 314 314 315 314 317 319 318 318 317 318 318 317 315 314 316 317 317 317 317 318 318 318 318 319 320 320 320 318 313 313 315 313 314 314 311 312 316 315 310 311 310 311 313 313 313 313 312 311 310 311 309 309 311 308 307 310 312 311 311 311 310 309 307 308 307 306 305
311 311 311 311 311 310 310 310 310 310 310 310 310 310 311 311 313 314 314 316 316 315 314 314 314 316 318 318 318 318 318 318 316 315 315 315 316 317 317 317 318 318 317 318 318 319 319 319 317 313 313 313 313 313 312 312 312 315 314 311 311 311 312 313 313 313 313 312 311 309 309 308 310 309 305 307 311 311 310 310 310 310 308 307 307 306 306 304
311 311 311 311 311 310 310 310 310 310 310 310 310 310 310 310 311 312 313 314 315 315 314 314 314 315 317 318 318 320 320 319 317 315 314 315 316 316 316 316 317 318 317 318 318 318 318 317 315 314 313 312 313 313 311 313 313 312 312 311 311 311 312 312 312 312 312 311 310 309 309 308 308 307 306 309 311 310 309 309 309 309 307 307 306 306 305 304
310 310 311 310 310 310 310 310 310 310 310 310 310 310 310 310 311 311 312 313 314 314 314 314 314 314 317 317 317 319 319 318 318 316 314 314 315 316 316 316 317 317 317 317 317 317 317 317 316 314 314 313 312 311 310 312 312 310 310 310 309 310 310 310 311 311 311 310 309 309 310 307 305 307 309 310 309 309 309 308 308 308 307 307 306 305 304 303
310 310 311 310 310 310 310 310 310 310 310 310 310 310 310 310 310 310 311 311 312 313 314 315 314 314 316 317 317 318 317 318 319 317 315 314 315 316 316 316 316 316 316 317 316 316 316 316 316 315 315 314 312 310 309 310 311 309 309 310 308 308 308 308 309 309 309 310 308 308 309 306 305 307 310 308 308 309 307 307 307 306 306 305 305 304 303 302
310 310 310 310 310 310 310 310 310 310 310 310 310 310 310 310 310 310 310 310 311 312 313 315 314 314 315 317 317 317 317 317 318 318 315 314 314 315 315 316 316 315 316 316 316 315 315 316 315 315 315 313 312 311 310 310 309 309 309 312 313 313 313 308 308 308 307 311 309 308 311 310 308 309 310 308 307 307 305 306 305 305 305 304 304 303 302 301
310 310 310 310 310 310 310 310 310 310 310 310 310 310 310 310 310 310 310 310 311 312 314 315 314 313 315 317 317 317 317 317 318 317 315 314 314 315 315 315 315 315 316 316 316 315 314 315 315 315 314 312 312 311 311 309 308 311 308 312 319 322 320 309 306 308 307 310 309 308 314 316 313 310 308 308 306 305 304 304 304 304 303 302 302 302 302 301
310 310 310 310 310 310 310 310 310 310 309 310 310 310 310 310 310 310 310 310 311 312 313 314 314 314 315 316 317 317 317 317 317 317 316 314 314 314 315 315 315 315 315 315 315 315 314 315 315 314 314 312 311 310 313 311 312 314 308 314 322 320 324 315 306 307 310 310 308 309 315 315 314 311 308 308 306 305 304 303 304 303 303 302 302 302 301 301
310 310 310 310 310 310 310 310 310 310 309 310 310 310 310 310 310 311 310 310 311 312 312 313 314 315 316 316 316 317 317 317 317 317 315 314 314 314 314 315 315 314 315 315 315 315 314 315 315 314 312 311 312 313 318 322 323 318 312 322 325 316 323 320 305 305 311 310 307 309 315 314 312 310 308 307 305 304 304 303 304 303 303 302 301 301 301 300
310 310 310 310 310 310 310 309 309 310 310 310 310 310 310 310 310 310 311 311 311 311 311 313 315 315 316 316 316 316 317 317 316 316 315 314 314 314 315 314 315 315 314 314 315 315 314 315 314 312 311 310 316 321 323 330 333 323 314 321 327 318 318 318 308 303 306 310 308 309 314 315 312 308 306 306 304 303 302 301 302 303 303 301 301 301 300 299
310 310 310 310 309 309 310 309 309 309 309 310 310 310 310 309 310 311 311 311 311 311 311 314 316 316 317 317 317 316 316 316 315 315 314 314 314 313 315 315 315 314 314 314 315 315 315 315 313 312 312 309 316 327 324 328 337 328 318 318 321 317 313 314 313 305 303 309 311 309 310 312 311 308 306 305 304 302 299 300 302 302 301 300 300 299 299 299
310 310 310 310 309 309 310 309 309 309 309 310 309 310 310 310 311 310 311 311 312 313 313 316 316 317 318 316 316 317 317 316 315 315 314 314 314 314 314 314 315 314 314 314 314 316 315 313 313 317 321 317 320 327 323 325 330 323 320 319 316 314 310 312 314 308 305 309 311 310 310 309 310 308 306 305 304 301 299 300 302 301 299 299 299 298 299 299
310 310 310 309 309 309 309 309 309 308 309 309 309 309 309 310 310 310 312 313 313 315 315 316 316 318 318 314 314 315 315 316 315 315 315 314 314 314 315 314 314 313 314 316 316 315 313 313 315 318 324 324 321 321 321 327 326 316 316 316 313 313 310 310 310 306 305 307 309 308 308 309 308 308 307 305 304 301 299 300 300 299 298 297 297 298 298 298
310 310 310 309 309 309 308 308 308 308 308 308 309 309 309 311 312 312 313 312 313 313 313 313 313 314 314 313 314 314 314 314 314 315 315 315 315 315 315 313 313 313 315 320 320 313 310 316 320 320 322 322 321 316 315 318 315 310 312 312 310 310 309 308 309 306 302 306 310 308 307 307 307 308 307 305 302 299 297 297 298 298 298 297 297 298 298 298
310 310 310 309 309 308 308 308 308 308 308 308 308 308 310 311 312 312 311 312 312 311 311 311 310 311 311 312 313 314 314 313 313 315 315 315 315 315 314 313 313 316 315 314 315 311 312 317 321 326 322 316 316 311 308 310 307 307 309 309 309 309 309 307 307 306 302 305 311 310 308 307 306 307 307 306 304 301 298 297 298 298 298 298 298 298 298 298
310 310 309 309 309 308 308 308 308 308 307 308 308 309 310 311 312 311 310 312 312 311 311 311 311 311 311 311 311 312 313 314 313 314 314 314 315 314 313 313 316 319 314 310 314 316 318 320 322 320 310 306 308 305 306 308 307 308 308 309 310 309 311 310 307 307 305 305 310 311 308 307 307 306 307 306 305 304 302 301 302 301 299 298 298 298 297 297
308 309 309 309 309 308 308 307 307 307 307 308 308 309 311 311 311 311 311 312 313 312 311 311 311 311 311 311 311 311 312 314 314 313 314 313 313 313 311 313 317 320 316 315 319 320 322 323 315 306 302 307 309 305 306 308 307 309 309 309 312 309 311 314 310 308 309 306 307 309 307 306 307 306 307 306 303 304 304 304 304 302 301 301 300 300 298 297
304 306 307 308 308 308 307 307 307 307 307 307 308 309 311 312 312 311 311 312 314 313 310 312 312 311 313 312 311 312 312 313 313 313 314 313 312 312 311 312 316 319 316 317 320 319 322 317 304 300 304 310 311 307 307 309 310 314 312 310 311 311 310 312 311 308 310 309 305 307 310 313 312 309 309 305 301 303 303 302 303 301 302 302 300 300 299 298
304 304 305 306 307 307 307 307 307 307 307 308 309 310 312 312 312 312 312 311 314 314 311 312 312 312 313 313 313 313 312 313 313 313 313 313 312 311 311 311 313 319 318 316 316 317 319 308 302 307 309 308 310 311 312 312 312 317 317 312 310 312 310 310 311 309 313 315 307 307 314 318 315 313 314 310 306 307 304 301 301 300 301 301 300 300 299 298
305 305 305 305 306 306 306 307 308 308 309 309 310 311 312 312 312 313 313 312 314 315 313 313 314 315 314 314 313 312 314 316 312 313 313 312 312 311 312 311 310 316 317 313 314 318 315 305 306 314 312 309 310 312 314 313 312 315 315 312 309 309 308 310 311 309 315 317 308 309 315 315 313 316 317 313 311 311 307 305 303 299 299 300 301 301 299 298
307 306 305 304 305 305 306 307 308 309 309 310 313 312 311 312 312 310 309 311 314 316 316 314 314 315 314 314 312 312 317 316 311 311 311 311 311 310 314 315 311 311 309 309 316 317 311 308 310 313 313 313 311 314 315 311 315 317 311 311 312 309 310 310 308 308 311 310 305 308 311 311 311 313 313 309 309 311 308 307 304 299 299 301 302 301 299 299
307 308 308 306 304 304 305 306 307 309 309 310 312 311 312 312 311 310 310 310 313 316 317 316 313 313 313 312 311 311 313 312 312 312 309 310 311 310 313 315 315 315 307 310 321 315 309 312 314 312 313 314 314 319 315 310 315 317 308 309 310 307 309 309 306 307 308 307 309 308 306 310 312 311 308 305 307 312 311 312 310 304 301 301 301 301 300 299
306 308 308 306 305 305 304 306 307 308 309 308 309 310 312 311 309 311 310 309 313 317 316 315 314 312 312 311 311 310 309 310 311 311 308 309 310 310 312 311 312 314 307 309 320 316 309 310 310 312 316 315 315 313 308 310 313 308 304 307 309 309 309 307 306 308 310 311 314 311 306 311 315 313 308 305 308 314 315 315 313 306 301 302 302 301 300 299
307 308 308 306 307 307 306 308 308 308 309 308 309 311 311 311 311 311 310 309 314 316 312 312 313 311 311 313 313 310 309 310 308 308 307 308 309 308 310 309 308 313 315 312 317 314 307 304 304 309 311 310 312 306 300 306 306 302 306 311 313 312 309 308 309 309 312 315 316 313 307 309 316 314 310 310 312 316 318 316 313 307 303 303 304 302 300 299
308 309 310 310 309 309 308 310 309 309 309 308 311 312 311 315 316 314 311 310 311 313 312 312 312 312 313 317 317 312 310 310 307 307 309 308 309 308 309 311 310 316 323 318 316 313 308 307 307 307 305 304 310 308 302 301 301 305 314 316 316 316 314 315 315 312 314 319 318 311 305 306 314 314 311 312 312 312 315 318 320 317 308 305 305 302 301 301
308 309 310 311 310 310 310 311 311 310 309 309 311 311 312 315 315 313 313 312 311 313 315 315 312 313 314 315 317 314 312 312 307 307 311 310 310 311 312 315 316 318 323 320 318 317 315 313 308 306 304 304 313 314 306 305 306 308 314 316 317 319 320 321 319 316 317 318 313 307 306 307 309 311 310 312 313 311 309 310 314 314 306 304 304 302 302 302
309 309 311 311 310 311 311 311 311 310 310 311 309 311 316 314 311 310 313 314 312 312 314 316 314 314 315 314 318 316 312 315 310 306 310 310 310 312 313 316 317 316 318 316 315 318 319 313 307 308 307 305 311 314 311 312 310 308 312 317 318 320 322 323 320 315 315 316 309 303 307 311 311 313 312 310 311 310 306 302 304 304 301 302 302 302 303 302
310 309 311 310 309 310 312 311 312 311 310 309 308 312 316 313 310 311 313 313 312 312 315 317 314 313 314 316 320 317 313 316 313 308 310 310 310 314 314 314 313 315 318 315 315 319 320 317 313 313 311 308 309 310 314 316 309 307 312 315 317 323 325 323 322 319 317 319 311 303 309 316 315 315 313 308 306 305 302 301 300 299 298 299 299 300 301 300
311 309 309 309 308 310 311 311 312 312 309 307 309 313 311 309 312 314 314 313 312 315 315 313 314 315 315 317 319 316 314 314 314 312 312 312 313 316 317 314 311 314 320 318 318 318 315 318 317 309 305 307 307 306 309 314 311 307 310 312 315 320 320 317 318 318 316 316 312 307 312 316 313 313 310 305 303 301 298 297 297 297 297 297 298 299 300 299
311 309 308 308 308 308 308 310 312 311 307 306 310 312 309 308 314 315 314 313 313 317 315 312 315 317 317 319 319 316 312 311 312 313 313 313 314 315 318 317 311 311 315 316 319 318 315 317 312 304 303 304 303 303 304 309 312 308 308 312 311 311 315 318 317 312 309 312 314 312 312 312 313 314 307 303 305 304 299 296 295 294 295 296 297 299 300 299
311 310 309 308 306 306 307 310 312 312 309 307 309 312 309 309 313 313 312 311 312 318 318 314 314 316 319 320 319 317 313 311 311 313 315 314 314 314 315 316 311 309 312 314 318 319 316 316 310 306 309 303 296 299 301 301 306 310 311 311 307 307 312 316 316 313 311 313 316 314 313 312 314 314 306 304 309 309 305 302 297 293 292 293 296 299 300 299
311 310 309 308 306 305 306 309 312 314 311 307 308 312 312 310 309 308 309 310 311 316 317 313 311 314 319 319 319 317 314 314 314 314 316 315 314 314 314 314 312 308 310 312 315 317 314 314 313 306 308 304 297 301 306 301 300 306 308 306 307 313 313 311 313 315 314 315 317 317 314 311 313 314 312 311 312 314 311 304 301 300 294 291 295 298 298 298
310 309 310 309 307 306 306 309 312 313 311 307 307 310 312 311 308 306 309 311 312 314 314 312 310 311 315 319 321 318 313 314 314 313 315 315 314 314 312 314 315 309 307 310 314 316 312 313 315 305 301 304 302 305 312 307 300 300 302 302 306 312 313 312 312 313 315 315 315 316 313 312 316 319 321 319 314 316 315 308 308 307 296 292 297 299 299 298
310 310 312 310 307 305 306 310 312 311 311 310 309 309 310 311 309 308 309 310 311 312 312 314 312 309 313 317 317 317 314 313 314 313 315 314 314 314 311 313 317 311 307 308 311 314 313 313 315 307 300 304 307 307 310 309 305 303 304 305 305 306 310 312 310 310 314 315 315 315 313 313 318 321 326 325 317 315 315 314 315 306 295 297 301 301 301 300
311 311 312 311 308 306 307 311 312 311 312 312 311 311 310 310 309 309 309 308 310 310 310 316 316 311 312 314 313 314 314 314 313 313 315 315 314 314 311 310 314 312 308 309 311 313 314 314 313 311 306 307 309 307 305 308 308 306 307 308 306 306 309 312 311 309 310 313 315 317 313 312 316 319 322 322 318 317 314 315 315 302 295 301 304 303 303 301
312 312 312 310 309 307 308 311 311 311 314 314 313 313 312 312 311 310 309 307 308 308 308 313 315 312 312 312 312 313 314 316 315 313 314 315 313 312 312 309 309 309 310 313 312 311 314 315 313 313 313 308 305 303 300 302 306 305 306 307 306 306 309 312 312 311 311 310 311 314 314 313 314 318 321 320 319 314 306 306 307 298 298 306 305 303 303 300
313 313 311 310 309 308 309 312 312 312 314 314 313 313 313 313 312 311 310 309 308 308 308 309 310 310 310 311 312 313 313 315 316 314 314 316 314 311 310 308 308 310 311 314 313 310 312 315 313 312 314 310 305 302 300 300 303 305 307 306 305 306 308 310 311 312 314 312 309 312 312 312 313 313 312 311 308 303 297 299 301 297 300 306 304 302 302 299
314 313 312 310 309 308 309 312 312 312 313 313 313 313 313 313 312 312 311 310 309 309 309 308 308 308 309 311 311 311 311 312 313 313 313 315 315 311 308 308 309 311 312 313 314 311 312 315 314 312 314 313 310 307 305 303 303 305 307 306 305 306 307 308 309 309 312 312 311 312 312 312 313 309 304 303 304 304 300 297 297 297 298 301 301 301 299 296
314 313 311 310 309 309 310 310 310 311 311 312 312 312 312 312 311 311 312 310 309 309 309 309 308 307 309 311 310 309 310 310 310 311 311 313 312 307 306 308 309 310 311 311 311 311 314 316 314 312 312 312 311 311 311 309 305 304 306 306 304 305 306 307 308 308 310 310 311 312 312 312 312 309 306 306 307 308 304 296 294 296 297 298 299 299 297 295
313 312 310 309 309 309 309 309 309 309 309 310 311 311 311 311 310 310 311 310 309 308 309 309 309 308 309 310 309 309 310 309 309 311 312 314 313 307 303 306 308 308 309 309 308 310 315 316 312 312 312 311 310 310 311 312 309 307 308 307 305 305 305 306 308 309 309 309 310 311 311 311 312 310 309 310 309 308 306 302 296 294 295 296 297 298 297 296
313 312 310 308 309 309 308 309 310 309 309 309 310 311 311 310 310 309 309 310 310 309 309 309 309 309 310 309 309 309 309 309 309 310 310 312 314 308 303 302 305 306 306 307 307 309 314 313 311 311 311 311 311 310 311 312 311 309 309 308 306 305 305 306 307 308 308 309 310 310 310 311 311 310 310 311 310 308 309 308 301 296 297 298 297 297 295 293
314 313 311 309 310 310 309 309 309 309 309 309 309 310 311 310 310 310 309 309 309 309 310 310 310 310 310 309 309 309 309 310 310 310 310 310 311 310 307 305 303 303 305 307 306 308 312 312 311 312 311 311 310 310 311 311 309 309 309 308 307 305 305 306 306 306 307 309 310 310 310 311 311 310 310 310 310 309 309 309 305 301 300 298 296 294 292 291
313 313 312 311 310 310 309 308 309 309 310 309 309 309 309 310 310 309 310 310 309 309 310 310 310 310 310 309 309 310 309 309 310 310 310 310 310 311 311 310 306 301 304 309 308 307 309 312 312 312 311 311 310 310 310 308 307 307 308 308 307 305 305 305 305 306 306 307 308 309 309 310 310 310 310 310 309 309 308 307 304 302 300 297 295 293 291 291
314 312 312 311 310 310 309 308 308 309 310 310 310 310 309 310 310 309 309 310 310 310 309 309 309 309 310 310 309 309 309 309 310 311 311 311 312 312 312 314 313 305 303 308 310 307 307 311 313 312 311 312 311 310 311 309 308 308 308 308 307 306 305 305 305 305 306 306 307 307 308 309 309 309 309 308 307 307 307 305 303 301 300 297 294 293 292 292
315 313 312 312 311 310 310 309 308 308 309 310 311 311 310 310 310 310 309 309 309 310 309 309 310 309 309 310 310 309 309 310 310 310 311 312 312 312 312 313 314 311 307 307 309 309 309 310 312 312 312 312 311 312 312 310 309 308 309 309 308 307 307 306 306 306 306 306 307 307 307 308 308 308 308 307 306 306 307 306 303 303 302 298 295 294 293 294
316 315 313 312 311 311 311 311 309 309 309 310 310 310 311 311 311 311 311 310 308 309 309 309 309 309 309 309 310 309 309 309 309 309 309 310 309 310 310 309 309 312 312 309 308 309 310 310 311 311 311 311 312 312 311 310 309 310 310 310 309 308 308 308 308 308 306 306 307 308 308 308 308 308 308 308 307 307 307 305 304 304 303 299 297 296 296 297
Wind_Speed
8 8 8 9 9 9 10 10 11 11 12 12 13 14 15 16 17 18 18 17 14 12 11 6 2 1 3 5 7 8 8 8 7 5 6 8 9 9 9 10 11 12 12 11 10 9 8 5 5 6 6 1 3 5 5 7 6 2 3 4 1 3 3 5 8 6 4 4 6 11 14 7 5 9 9 6 7 9 13 16 14 17 20 16 13 13 21 28
8 8 8 9 9 9 9 9 10 10 11 11 12 13 14 15 16 17 18 18 14 12 11 8 4 2 2 2 5 6 6 6 5 4 6 7 7 8 8 8 9 10 11 11 10 11 10 8 8 8 5 2 4 5 5 6 6 3 3 4 1 5 4 4 7 8 3 2 8 11 12 9 6 11 13 6 6 9 9 12 13 14 17 17 16 18 24 27
9 9 9 9 9 9 9 9 9 10 11 11 12 12 13 14 15 16 17 18 16 12 10 8 6 3 4 3 4 5 5 4 3 4 5 5 5 6 6 7 8 9 10 11 11 12 12 11 12 10 4 4 6 5 5 8 5 1 4 3 4 6 4 5 5 9 5 2 8 8 8 9 7 11 13 7 6 7 10 14 14 16 21 21 21 23 26 27
10 10 10 10 10 10 10 10 9 9 10 11 12 12 12 13 14 14 15 17 17 13 10 8 7 4 4 5 5 4 2 1 3 3 3 3 4 4 4 5 6 8 9 10 11 12 12 12 12 9 5 4 6 5 4 10 5 0 4 3 5 4 2 6 6 7 7 4 7 7 4 7 8 11 13 9 6 5 15 24 25 24 26 26 26 27 28 28
11 11 11 12 12 12 12 11 11 11 10 11 12 12 12 12 13 14 14 16 16 14 11 10 7 5 4 5 6 6 2 1 3 4 3 2 3 3 3 3 4 7 8 10 11 11 10 13 11 8 6 4 7 5 3 9 5 2 1 3 4 6 2 6 5 5 7 5 7 6 4 7 8 11 16 16 9 9 18 25 28 28 26 25 27 29 30 30
12 12 12 12 12 13 13 13 13 12 12 11 11 12 12 12 13 13 13 14 15 14 12 12 9 5 5 5 6 7 3 1 4 6 4 3 2 1 1 1 3 5 7 8 9 9 10 14 13 7 5 4 5 3 4 8 4 1 0 2 3 7 3 5 6 6 7 8 8 8 8 9 9 9 17 23 21 21 19 16 19 25 24 23 27 30 32 31
12 12 12 13 13 13 13 14 14 14 13 13 12 12 13 13 13 13 13 13 14 14 12 13 12 7 5 4 5 6 5 4 4 7 6 4 3 1 1 1 1 3 6 6 6 8 11 15 15 7 4 4 2 0 4 7 3 3 1 1 2 6 5 5 8 8 9 11 11 9 8 11 12 8 10 23 31 30 25 17 15 21 23 25 28 31 31 30
13 13 13 13 13 13 14 14 14 14 14 13 12 12 13 13 13 13 13 13 14 13 12 12 12 9 6 5 5 7 7 5 5 9 8 6 4 3 3 3 1 2 5 5 5 8 11 15 14 7 3 2 1 1 5 6 3 4 2 2 2 4 6 7 9 11 12 13 12 9 9 11 15 9 6 22 30 27 29 24 18 19 24 28 31 31 30 29
14 14 14 14 14 14 14 14 14 14 14 14 13 12 12 13 14 14 13 13 13 13 13 12 12 11 7 6 6 6 6 5 6 9 9 7 5 4 4 4 3 3 4 4 4 5 9 11 10 7 1 2 2 2 4 3 2 1 1 3 3 5 6 8 11 12 13 13 10 9 8 8 11 7 11 26 27 23 26 24 19 20 26 30 31 31 30 30
16 16 16 16 15 15 15 15 14 15 15 14 13 13 12 13 14 15 14 14 14 14 13 11 11 11 8 7 5 3 4 5 7 9 9 9 7 6 5 4 4 4 4 5 4 3 6 8 8 7 2 3 2 1 2 2 1 2 4 6 6 7 8 8 11 12 11 11 10 9 6 5 4 2 9 18 18 21 23 21 20 23 27 30 31 31 30 29
18 18 18 18 18 17 17 16 15 15 15 15 14 13 13 13 14 15 15 15 15 14 13 11 10 10 8 8 6 5 6 6 6 9 11 10 9 8 6 5 5 5 5 6 5 3 3 6 7 6 1 0 2 1 1 2 2 4 4 5 7 7 6 6 7 10 7 6 10 8 5 3 3 3 11 13 12 18 21 22 23 26 29 31 31 31 30 29
19 20 19 19 19 19 19 18 17 16 16 16 15 14 13 14 14 15 15 16 16 14 12 10 9 10 9 10 11 9 9 8 7 9 12 11 11 9 7 6 6 5 6 6 6 4 3 4 6 4 2 1 2 1 1 4 5 2 3 3 7 7 3 2 3 5 5 3 6 3 4 5 5 10 16 11 11 17 20 23 26 28 31 31 32 31 31 30
20 20 20 20 20 20 20 20 19 19 18 17 16 15 14 15 15 15 15 16 15 13 11 9 9 11 9 10 11 10 9 9 9 9 12 12 12 10 9 7 7 6 6 7 7 5 3 4 5 3 1 1 1 1 2 6 5 1 3 2 4 8 3 2 2 1 5 3 4 3 4 7 8 17 19 11 13 18 21 25 28 30 32 32 33 32 32 32
21 21 21 22 21 21 21 21 21 21 20 19 18 16 15 16 16 16 16 15 14 12 11 10 9 11 9 10 11 11 10 9 10 10 12 13 12 11 10 8 8 7 7 7 8 6 4 5 4 1 2 2 0 1 4 6 4 1 1 2 2 3 4 5 1 5 4 4 5 4 3 10 9 13 16 14 16 20 24 28 30 32 33 34 35 35 35 34
22 22 22 22 22 22 22 22 22 22 21 21 20 18 17 17 17 17 17 14 12 12 12 11 10 9 9 11 12 11 9 9 11 12 12 13 13 12 10 9 9 8 9 8 8 7 5 5 3 1 2 1 2 2 4 5 4 3 1 3 3 0 5 9 3 7 5 3 5 4 3 10 11 10 12 15 18 22 26 29 31 34 35 36 36 37 37 36
22 23 23 23 23 23 23 23 22 22 22 22 21 20 18 18 19 18 17 14 12 14 13 10 8 7 7 9 9 8 8 9 11 12 13 14 13 13 12 11 10 10 9 8 8 6 5 3 2 2 2 2 3 4 5 4 4 4 1 3 3 2 4 7 3 4 4 2 3 4 3 7 8 6 7 12 19 24 26 27 31 35 37 38 38 39 38 36
23 23 24 23 23 23 24 23 24 24 23 23 23 22 20 19 19 16 14 15 15 13 10 8 7 6 9 10 9 8 8 9 11 13 14 15 14 13 12 11 10 10 9 7 7 4 4 2 1 1 3 4 3 4 5 4 4 4 2 2 4 3 3 5 5 2 1 3 4 4 5 11 13 9 9 13 19 24 26 28 33 36 37 38 38 39 39 39
25 25 25 24 24 24 24 24 24 24 24 24 24 24 22 19 15 13 13 15 13 8 6 6 4 3 7 9 7 7 7 8 11 13 15 15 14 13 13 11 10 9 7 5 5 3 3 1 2 1 3 4 3 5 2 4 3 4 3 3 4 3 4 5 6 3 2 1 5 3 6 14 18 17 16 18 20 25 30 32 33 34 34 36 37 39 41 41
28 27 26 25 24 25 25 25 25 24 25 25 24 24 21 16 12 10 10 9 7 4 3 5 5 3 6 6 7 9 10 10 11 13 15 15 14 13 12 11 10 7 2 1 2 0 0 1 2 0 2 3 2 5 7 8 7 6 5 4 4 5 6 6 6 4 1 2 7 7 9 13 18 18 17 17 22 28 31 30 29 29 30 34 37 40 42 44
30 29 28 27 26 26 25 25 25 24 25 25 25 23 16 11 8 6 8 8 8 10 11 12 14 16 17 17 16 15 13 12 12 13 14 14 14 12 11 10 7 4 1 2 2 1 2 1 3 5 7 8 7 8 6 5 6 5 4 4 6 6 8 7 5 4 1 2 9 9 9 13 17 18 19 17 18 23 24 23 26 28 30 34 38 41 44 45
33 32 30 28 27 26 26 26 25 24 23 23 22 18 10 8 5 6 12 13 12 15 17 19 20 23 24 22 20 16 13 13 14 14 14 13 13 9 7 6 3 2 2 2 2 2 3 2 7 9 9 7 6 6 6 6 5 3 4 4 5 5 8 9 4 4 1 3 6 8 7 13 16 17 22 16 11 16 20 21 27 30 32 35 38 42 43 42
35 33 31 31 29 27 26 25 25 24 22 20 17 12 7 8 7 7 10 12 16 18 18 20 22 25 26 25 25 20 14 12 14 16 15 14 13 9 5 3 3 3 1 3 2 3 2 6 11 8 6 5 5 6 7 6 5 2 2 2 4 4 5 8 4 4 2 3 5 8 8 14 17 17 23 18 11 18 24 26 32 32 32 36 38 41 40 40
36 34 32 32 30 28 26 25 25 23 20 18 15 10 7 8 8 10 9 8 16 19 16 18 20 23 24 23 24 20 15 12 11 13 15 15 13 10 7 5 3 2 1 3 5 2 2 8 7 6 9 8 5 4 7 5 2 3 3 2 5 4 2 5 4 5 3 3 4 8 10 13 14 14 19 16 13 20 25 28 34 32 32 36 37 39 40 41
34 33 32 32 31 28 24 24 23 21 20 16 14 10 7 7 7 10 9 5 9 12 12 15 15 18 19 18 17 15 15 14 9 8 11 15 13 8 7 6 4 2 4 5 7 5 7 6 4 8 6 6 5 3 6 4 3 4 5 6 6 6 6 6 4 5 5 3 3 6 11 10 6 8 11 7 4 12 17 22 28 29 32 33 33 36 40 42
30 31 31 31 31 26 22 23 21 19 18 13 11 8 5 6 7 9 7 3 5 7 8 9 10 11 13 12 12 11 10 12 12 9 9 15 16 7 3 6 5 4 4 4 5 5 9 5 7 6 2 4 6 4 5 7 3 4 5 10 10 8 8 6 5 6 5 4 3 4 7 8 2 3 9 4 3 7 8 12 20 24 26 29 34 38 39 39
26 28 29 29 29 26 21 19 17 16 14 10 9 7 4 3 5 8 5 2 3 5 3 4 5 6 8 7 8 8 2 7 12 12 10 14 18 10 3 4 3 3 5 6 3 4 4 1 4 5 5 5 5 5 6 7 5 3 4 7 7 5 3 3 4 4 2 4 4 3 1 9 4 2 9 7 6 11 8 8 16 21 21 27 37 40 38 38
22 25 28 28 26 25 20 17 17 15 12 9 7 4 3 2 2 6 4 3 5 5 4 4 5 6 7 7 11 10 2 3 6 10 13 15 16 13 6 4 2 3 5 5 1 3 3 3 4 4 5 4 5 6 6 8 7 4 4 5 6 5 4 4 1 2 4 2 4 2 4 8 8 6 7 5 6 13 12 11 15 18 23 30 37 38 37 39
20 21 26 26 24 23 20 18 19 17 13 10 6 4 2 2 1 3 3 3 5 4 5 4 5 7 7 9 15 9 1 3 5 6 13 15 15 12 7 7 6 5 5 6 5 4 3 5 4 5 4 3 6 5 7 11 5 5 5 6 6 5 4 4 3 3 3 3 5 5 5 4 9 6 3 4 4 11 12 14 14 15 23 31 35 36 37 38
18 19 23 24 23 21 19 18 18 17 15 11 7 6 3 3 3 4 3 5 4 2 4 5 6 5 4 7 11 7 2 1 2 6 11 11 12 7 3 7 7 5 3 4 6 5 1 4 6 7 4 5 5 2 5 8 3 3 6 5 4 5 4 4 2 1 2 3 9 7 8 4 7 4 2 3 3 9 10 12 12 13 20 26 29 33 34 35
19 18 20 21 20 18 16 16 16 15 13 10 9 8 6 6 5 4 3 6 3 1 4 5 4 5 6 5 4 6 3 2 1 6 8 6 8 4 2 4 4 5 0 4 4 5 0 2 2 4 5 5 5 3 2 3 2 5 6 4 5 4 4 4 2 2 2 6 11 8 12 8 5 3 4 4 5 8 8 8 8 11 17 23 26 28 30 33
18 16 17 19 19 17 14 14 15 13 11 11 10 10 9 4 4 4 8 5 1 1 2 2 2 4 6 5 2 3 2 3 3 7 5 3 4 2 3 3 2 3 3 5 4 4 3 1 2 3 5 6 7 5 3 3 3 5 5 4 4 4 4 5 4 3 0 8 7 3 8 8 7 6 5 6 7 7 8 7 7 9 16 22 23 24 26 29
17 16 16 19 20 17 14 15 13 11 12 13 14 14 9 1 1 5 5 2 1 3 3 2 1 3 4 1 1 3 2 2 3 5 5 3 4 4 4 5 5 1 3 5 4 5 3 5 3 1 4 6 6 4 3 4 3 4 4 5 2 4 4 4 4 0 3 8 4 3 4 4 10 10 8 11 11 10 10 11 11 11 14 19 19 19 22 26
17 16 16 20 20 16 15 16 13 13 13 15 16 11 7 2 6 6 4 3 3 2 2 3 1 3 5 2 3 3 1 3 4 3 3 3 3 5 6 5 6 3 3 3 1 3 3 4 0 2 3 7 9 5 3 2 1 5 5 5 4 1 1 3 5 3 6 8 3 4 3 4 7 7 12 17 15 16 15 15 17 16 17 18 17 16 20 25
18 17 18 22 20 15 17 16 13 14 15 18 15 7 4 7 6 6 8 8 2 2 2 3 3 3 3 3 4 4 3 4 4 5 2 3 2 5 6 7 6 3 1 2 1 3 4 7 4 6 2 8 11 6 5 5 4 5 5 5 5 5 4 4 4 5 7 6 3 3 2 4 3 4 9 13 13 16 14 14 17 18 18 18 16 16 20 27
20 19 20 23 20 19 19 17 15 17 18 19 11 4 7 9 4 4 8 6 2 0 1 1 4 4 2 3 3 4 6 4 3 5 4 4 4 5 5 7 8 5 4 3 2 3 4 9 6 2 1 8 8 3 5 7 3 2 3 4 3 5 5 3 4 5 2 5 4 4 4 5 3 7 7 2 6 10 8 9 11 12 13 13 15 19 23 28
21 20 20 21 21 19 17 15 16 17 18 15 6 6 11 7 4 5 5 6 5 5 4 1 2 4 4 4 3 4 5 3 2 3 4 4 4 6 5 5 9 11 8 6 3 3 3 6 3 1 1 3 4 3 3 2 4 3 3 4 4 4 5 2 4 1 4 4 6 3 6 6 2 6 5 2 6 8 4 5 5 6 7 10 17 22 24 28
22 21 21 23 20 15 13 16 18 17 14 9 6 10 9 5 8 8 5 6 6 7 7 4 4 6 5 3 4 5 4 2 3 3 4 3 4 7 6 5 8 15 17 11 4 4 4 4 3 3 2 3 1 2 1 2 5 5 3 5 3 2 3 3 2 3 2 4 6 3 8 7 2 4 2 1 7 9 7 5 3 5 7 13 20 23 24 28
22 21 25 28 21 14 14 17 21 18 10 5 10 13 5 5 11 10 8 8 6 6 7 6 6 6 7 5 4 6 6 4 5 5 4 4 5 6 8 5 9 16 23 17 5 3 3 3 4 2 3 2 1 2 1 1 3 5 4 3 3 3 2 2 2 3 2 4 6 8 10 8 5 4 2 4 9 10 7 6 4 7 10 16 23 24 25 27
21 18 24 27 18 15 17 20 24 20 10 6 12 12 4 5 9 12 17 14 5 6 7 7 7 4 5 7 5 6 8 7 8 5 4 5 5 5 9 8 8 12 19 18 8 2 3 3 4 1 1 2 1 2 5 3 1 3 1 2 1 3 4 3 3 2 3 4 7 9 12 9 6 6 7 9 11 10 7 6 8 10 14 21 25 25 27 29
22 15 19 21 12 15 22 24 23 17 8 8 11 7 2 2 6 14 26 21 7 6 7 5 7 5 4 7 5 5 7 6 7 5 4 5 4 4 9 9 5 5 8 9 6 2 3 3 5 1 2 1 4 6 9 10 7 4 3 3 2 2 2 1 1 2 4 4 4 5 11 12 5 6 7 9 10 11 10 9 9 11 18 25 26 26 29 31
22 12 16 17 13 22 31 24 16 11 5 8 10 5 2 3 6 13 25 24 12 7 6 5 7 7 6 6 4 4 5 4 6 6 4 5 5 5 10 13 9 8 6 3 3 5 3 4 6 3 2 5 6 3 3 8 8 8 8 8 8 6 4 1 5 3 4 4 4 3 9 15 5 6 6 7 9 10 11 10 8 11 21 26 26 27 29 31
24 13 13 16 18 32 35 18 11 10 7 10 10 6 6 6 5 8 15 18 12 6 3 4 7 8 6 5 4 5 6 4 6 7 5 7 10 7 9 17 17 15 11 5 4 5 4 3 5 6 5 6 5 2 1 3 2 2 5 5 7 7 7 6 8 5 3 3 3 4 5 14 6 7 7 7 8 10 12 12 9 13 22 24 24 27 29 31
30 20 14 15 24 39 32 7 8 8 6 11 11 10 10 6 3 5 10 12 9 6 6 7 8 9 6 4 4 6 7 6 7 8 5 5 10 12 12 19 20 14 8 3 1 2 3 2 5 7 4 3 4 3 2 2 2 2 6 5 7 9 10 9 6 3 3 4 4 4 6 15 6 4 5 3 4 6 10 13 12 13 20 23 24 26 28 31
33 26 20 20 29 39 27 6 8 11 8 10 11 12 13 9 7 8 8 10 10 7 8 9 6 6 6 4 6 7 7 7 7 8 7 6 7 12 17 24 22 11 7 7 7 8 6 3 4 5 6 5 4 3 2 1 2 4 6 5 8 13 11 4 0 2 3 7 8 5 12 16 6 2 1 1 2 5 8 13 15 15 18 21 23 25 27 30
24 16 18 29 38 41 27 12 7 9 13 14 12 13 12 9 12 17 13 12 12 7 5 7 5 6 6 5 6 8 8 9 8 5 7 8 4 4 15 27 27 17 14 15 15 14 8 4 6 8 10 10 9 6 4 3 3 3 4 5 10 16 15 8 3 5 8 8 9 9 18 16 10 5 1 3 6 7 10 12 14 18 20 21 22 24 27 31
18 9 9 21 36 40 33 24 11 4 8 13 9 9 13 11 10 16 17 14 13 9 4 4 6 7 7 8 8 11 11 10 9 5 6 7 3 2 7 21 26 21 14 13 16 15 4 3 10 14 15 14 14 11 5 6 5 6 10 12 14 16 16 12 8 7 11 9 8 18 21 15 21 20 6 4 9 10 12 12 12 18 23 23 24 26 28 32
16 10 8 11 17 24 26 24 18 7 4 10 7 6 14 15 8 8 15 14 13 13 7 6 7 7 8 12 11 11 10 8 9 12 13 9 4 3 2 8 15 15 8 5 12 12 2 6 14 18 19 17 17 14 6 8 9 12 14 17 18 16 15 14 14 15 13 10 12 22 19 15 26 27 13 11 15 13 15 15 13 19 25 26 27 27 28 31
17 14 21 22 12 8 15 21 22 16 10 11 9 6 10 14 12 10 12 11 11 14 10 7 12 16 14 11 7 7 9 9 12 16 16 12 5 2 2 2 5 8 4 2 5 6 2 9 15 15 17 17 17 15 8 8 9 10 12 18 19 18 18 18 20 23 20 14 17 22 20 21 28 23 13 16 17 14 20 23 19 21 26 26 26 27 29 32
18 11 19 28 18 11 20 27 24 19 18 15 10 10 12 16 18 13 7 6 7 13 16 13 16 21 18 12 8 8 10 12 15 14 12 11 8 4 3 4 3 3 4 3 3 3 3 8 13 12 14 16 19 18 10 8 10 9 11 19 19 16 18 21 24 27 24 19 22 25 25 29 28 18 14 21 22 20 24 26 20 19 23 24 26 29 31 33
24 19 20 24 19 17 22 23 17 14 17 16 12 13 16 18 20 13 8 10 10 9 15 21 20 15 14 15 15 16 18 19 18 14 9 7 7 5 4 6 4 1 3 4 2 2 5 7 10 8 9 15 19 17 11 11 13 12 16 25 21 12 13 22 25 22 17 18 24 27 26 27 24 17 16 22 25 23 23 23 22 23 24 24 27 30 31 34
39 37 33 20 11 15 18 15 12 11 10 12 14 16 17 19 23 16 7 13 18 11 12 21 20 11 10 16 20 22 27 25 20 19 14 8 8 9 7 7 7 4 4 5 3 3 5 5 5 4 8 15 16 11 10 10 7 10 21 31 24 14 16 23 20 14 14 19 23 23 20 20 20 17 15 17 19 20 20 20 23 28 28 28 29 31 32 35
42 37 34 22 10 13 15 10 10 11 8 12 18 19 17 19 20 13 7 13 24 25 19 18 18 12 9 14 23 31 36 34 31 34 29 16 10 13 12 10 10 9 6 4 3 3 5 5 5 6 10 14 9 3 5 4 2 11 20 23 22 20 23 23 16 16 21 21 17 17 18 20 18 15 16 18 18 18 19 21 24 28 28 29 32 34 35 36
Wind_Direction
360 1 3 4 6 5 4 3 2 3 6 8 7 6 5 5 7 9 11 14 15 10 7 6 4 93 108 100 103 99 95 82 75 90 88 68 58 53 47 43 39 30 23 17 14 11 7 1 350 351 342 350 39 33 57 35 28 42 100 81 85 165 196 189 177 194 172 198 211 192 189 172 171 182 173 171 185 184 181 194 205 206 220 235 232 215 193 191
349 352 353 355 356 357 358 356 354 352 353 356 358 359 359 358 360 3 4 5 10 10 4 359 346 280 224 122 115 109 103 94 92 98 85 72 62 57 52 49 42 33 26 19 18 14 10 8 4 4 360 64 37 42 69 31 37 70 110 79 232 198 211 200 182 199 184 186 200 198 198 195 208 184 173 175 187 181 184 205 213 214 218 222 214 197 190 192
338 341 342 344 345 347 348 348 347 343 342 344 345 348 350 350 351 355 358 358 2 7 6 357 344 303 257 213 157 135 125 117 121 101 90 80 65 64 59 55 42 33 27 21 19 11 6 3 3 3 15 68 42 64 70 28 34 88 91 76 241 218 243 254 224 209 212 240 189 197 205 208 229 192 182 188 183 192 206 205 203 211 210 204 200 194 191 193
330 333 334 336 337 338 339 340 340 338 336 335 336 337 340 342 342 345 350 353 356 1 5 360 345 320 275 231 204 183 184 226 188 140 110 91 67 70 65 61 41 30 24 21 18 9 8 5 2 7 40 65 33 72 64 20 29 101 100 141 227 194 239 259 247 226 229 240 196 199 200 221 226 195 192 179 158 231 229 217 216 222 217 204 199 196 195 196
324 327 329 331 333 335 336 337 337 336 334 331 330 330 331 334 334 336 343 347 352 355 355 357 348 324 299 246 230 227 238 14 194 175 145 130 78 71 64 65 38 27 20 17 14 8 11 11 10 24 51 53 25 57 30 12 45 61 107 211 212 162 209 259 232 224 226 216 195 190 193 222 203 195 204 188 186 238 238 235 232 233 228 217 209 201 197 197
316 320 324 327 331 334 336 338 339 339 337 334 330 326 324 325 328 329 335 340 346 351 348 349 349 329 307 265 244 239 235 354 223 197 176 180 127 76 71 78 38 24 15 11 6 9 14 13 21 37 57 52 26 55 7 3 36 53 321 254 199 178 228 254 212 222 228 207 195 197 214 212 184 215 223 206 222 240 242 251 242 235 228 222 216 205 200 198
309 314 318 322 328 332 335 338 339 340 340 338 334 328 323 321 324 324 329 334 338 345 342 340 344 335 308 278 254 246 252 287 235 195 189 196 188 215 240 214 22 17 11 4 356 12 15 13 27 50 76 63 42 54 355 359 41 105 128 301 194 202 242 230 210 229 235 225 223 216 212 204 194 226 233 220 237 244 243 250 250 236 220 214 212 206 204 202
303 308 312 318 324 328 332 334 336 337 339 340 339 333 324 320 321 320 323 327 329 336 336 333 338 336 314 278 265 265 266 268 215 195 200 203 205 227 247 244 253 355 359 356 357 15 15 15 26 41 74 74 88 16 358 358 28 90 145 260 198 221 237 215 223 237 238 238 238 220 205 212 214 225 245 240 248 248 242 248 252 232 212 209 210 208 206 203
299 303 308 313 318 323 327 330 331 332 334 337 339 337 328 321 319 320 320 321 323 327 329 328 329 331 316 278 279 285 274 247 215 211 210 211 221 230 241 246 243 306 343 348 350 10 16 19 19 14 69 124 106 65 29 25 355 82 213 275 242 249 249 232 238 239 239 240 230 210 214 234 227 237 268 255 253 247 240 244 243 222 210 208 208 209 207 205
300 303 306 310 313 317 321 324 326 326 329 332 336 338 331 324 319 318 318 318 318 320 324 323 322 327 313 286 278 273 282 260 230 227 220 218 228 235 242 247 253 287 329 335 332 357 17 18 8 6 64 121 78 74 69 85 293 297 295 283 261 266 267 250 243 241 243 241 226 213 229 250 203 186 267 256 245 237 235 232 227 216 211 210 208 208 208 209
301 304 306 308 311 313 316 319 321 322 325 328 332 334 331 324 318 316 317 316 315 316 319 316 316 320 307 282 252 240 283 281 248 237 226 223 230 239 248 251 263 280 301 319 322 315 358 6 0 5 30 33 356 340 122 55 321 300 312 286 276 293 277 251 247 242 240 245 233 222 244 256 129 181 252 256 241 231 227 221 217 212 211 211 208 208 208 211
298 300 303 306 308 311 313 315 318 320 322 325 328 330 329 323 316 316 315 315 314 313 315 311 312 319 307 276 259 265 285 274 260 246 228 229 234 240 250 259 270 276 287 305 312 302 304 336 349 359 346 275 330 3 70 359 333 291 24 316 294 345 350 242 296 237 205 244 239 206 278 258 182 227 249 256 238 223 217 215 213 210 210 210 208 209 210 211
292 295 298 301 303 307 310 313 315 316 319 322 324 326 327 320 314 314 313 312 311 310 313 305 307 317 302 275 273 283 283 263 259 248 233 235 237 243 253 262 271 270 279 291 303 300 278 314 336 354 30 98 357 353 295 336 346 286 46 44 315 353 358 210 22 174 182 234 222 136 288 266 219 233 246 249 228 212 206 210 211 211 210 209 209 211 212 212
286 289 292 296 299 303 306 310 311 314 317 319 321 322 323 318 311 311 310 307 305 305 306 297 306 316 288 270 282 284 273 259 256 246 237 237 237 244 251 261 271 271 277 287 301 295 270 311 328 350 70 69 50 322 321 348 19 341 358 50 17 347 282 274 309 152 168 227 201 142 257 268 261 248 248 244 229 213 208 212 213 213 212 211 211 212 215 215
279 283 288 291 295 299 301 305 307 310 313 316 317 318 321 316 309 309 307 301 297 298 300 293 296 301 280 274 278 277 271 256 251 245 238 237 238 242 247 260 268 272 279 279 291 289 274 304 323 66 87 55 46 40 356 355 13 19 339 310 340 237 270 301 284 174 192 226 178 152 236 269 276 272 257 238 224 215 215 217 217 217 216 214 214 214 216 217
274 278 282 286 290 294 296 299 302 305 309 312 314 315 319 316 310 309 304 296 292 292 291 286 286 285 277 279 275 271 266 252 247 243 240 239 239 242 248 261 267 272 279 278 286 281 268 307 7 60 74 93 84 75 41 9 344 6 52 258 277 240 288 318 316 198 207 182 184 203 236 275 276 271 255 226 217 216 219 222 222 222 221 217 217 216 216 216
270 273 276 280 284 288 291 294 297 301 304 308 310 312 317 317 312 307 301 297 295 292 286 274 278 281 266 266 269 270 265 254 248 242 241 240 240 245 253 261 265 270 275 272 277 266 252 300 54 29 50 72 84 81 41 352 311 326 6 267 251 239 261 299 307 299 142 167 225 230 233 260 266 265 256 235 223 217 220 227 227 226 223 220 219 217 217 216
266 268 270 275 278 282 286 289 294 298 301 305 308 312 318 318 311 303 301 300 292 283 280 261 256 295 269 255 253 266 273 262 253 243 240 240 241 248 256 263 265 268 279 272 262 248 255 321 85 25 18 16 32 86 108 250 222 252 267 261 277 268 242 252 269 301 45 227 234 224 243 259 268 271 260 245 231 221 225 230 232 231 226 223 221 219 219 219
263 264 267 270 273 277 280 285 290 295 299 302 306 311 316 316 307 302 306 305 286 265 262 242 225 235 263 266 265 273 278 270 262 249 241 241 243 251 257 261 263 262 266 255 252 215 16 21 71 50 301 281 239 155 190 208 184 205 215 199 238 262 260 245 239 257 9 276 256 238 240 258 270 275 266 246 227 224 231 235 235 235 230 226 224 223 222 221
262 262 264 266 269 273 277 282 286 292 298 302 310 317 325 331 324 315 312 302 274 266 272 270 265 260 261 273 278 277 275 269 264 251 241 239 240 250 258 256 260 256 188 184 227 44 71 319 243 224 229 235 223 193 183 172 153 151 149 187 231 242 266 266 250 274 132 217 266 251 238 256 264 270 274 256 224 224 232 234 235 234 231 228 226 227 225 224
262 262 263 265 266 269 273 279 283 289 296 304 317 329 347 355 337 312 313 304 279 270 275 277 273 266 262 266 270 270 272 271 262 246 239 239 235 239 249 242 221 231 251 157 175 17 65 233 238 221 218 218 201 166 135 126 130 131 168 219 261 239 259 273 268 305 326 180 264 274 260 260 258 265 274 260 211 225 229 226 236 234 231 232 229 230 228 226
262 261 262 263 265 267 270 275 280 285 293 303 317 331 343 335 317 311 316 302 288 284 278 274 270 266 263 260 260 261 262 267 261 246 238 234 227 221 216 178 146 211 289 99 137 357 10 253 246 215 172 116 98 127 127 125 135 147 164 198 271 254 276 292 310 352 353 178 266 295 283 267 262 260 268 259 225 244 242 234 243 239 231 234 232 232 229 226
264 263 262 262 263 265 268 272 276 282 290 298 309 319 323 323 321 319 313 287 290 294 279 268 266 264 262 257 255 253 245 248 259 251 238 225 216 209 196 154 134 203 295 164 180 169 247 258 249 173 141 114 88 113 119 105 137 172 162 190 258 273 310 286 309 344 304 235 271 291 280 268 263 253 264 268 247 252 254 248 251 246 238 239 239 238 233 227
271 267 264 262 262 263 265 269 274 281 286 292 299 303 311 318 324 326 315 278 286 294 276 261 258 259 258 254 249 241 234 237 247 249 229 211 197 194 197 163 132 214 237 194 176 197 241 244 136 113 126 137 130 137 141 155 242 245 205 210 244 259 244 243 298 331 310 311 322 305 292 274 253 245 261 286 272 260 258 254 254 247 243 245 244 243 238 232
275 272 267 263 262 262 263 268 273 278 281 286 288 287 304 315 329 338 327 302 287 288 274 254 249 251 245 243 237 221 223 237 236 234 221 203 190 174 179 169 165 222 217 158 151 238 262 231 144 127 106 141 158 194 192 179 212 292 235 214 227 239 249 270 332 347 342 327 326 3 321 286 284 266 262 278 328 282 256 249 256 251 243 242 242 242 239 234
276 275 271 266 264 264 265 268 269 270 271 273 273 273 289 299 339 345 344 35 296 269 250 224 227 223 210 213 198 174 205 253 229 222 212 201 194 178 147 162 176 215 170 136 149 242 266 101 124 150 149 149 178 231 227 172 149 285 245 198 201 201 229 275 336 343 289 262 297 49 312 273 289 269 266 282 299 282 260 246 260 256 245 239 241 242 237 233
279 277 274 271 268 266 267 263 259 260 258 258 256 246 263 261 16 1 8 0 276 228 169 178 191 191 195 188 164 152 205 217 184 204 200 196 195 188 194 191 153 201 171 136 209 240 163 95 64 103 120 143 193 240 223 157 134 235 225 139 133 135 175 203 150 278 246 266 300 196 185 274 281 248 267 299 290 280 274 266 265 255 245 243 244 242 237 234
280 277 277 278 274 268 264 258 255 254 248 244 232 206 224 218 195 38 54 279 264 177 147 166 169 185 196 184 178 175 252 153 145 195 189 188 193 187 215 219 178 190 181 150 210 260 131 159 187 146 116 188 209 232 194 160 153 242 196 131 124 131 157 164 152 235 278 5 289 217 160 276 274 251 315 8 267 271 273 265 263 254 246 245 245 242 238 236
280 273 276 279 278 271 264 258 252 248 244 237 219 209 180 155 161 71 83 245 261 140 157 164 159 186 169 158 192 215 288 155 169 185 174 178 191 184 218 213 171 163 192 169 218 259 113 169 190 154 157 220 215 254 184 168 192 198 141 105 76 75 80 93 135 222 20 329 266 226 169 229 271 237 100 57 238 250 260 260 261 261 254 249 248 245 239 235
289 286 282 279 278 273 264 256 246 241 238 224 209 196 162 145 127 97 220 244 263 151 147 160 177 178 142 128 215 243 237 249 170 156 160 168 184 180 148 163 122 121 13 340 264 254 307 108 161 172 190 184 140 91 98 131 139 128 107 58 30 36 49 55 68 64 30 274 267 229 180 193 276 259 185 186 213 215 223 248 265 270 263 256 252 247 240 235
286 286 282 279 278 270 260 251 242 232 219 204 191 171 156 139 100 166 224 241 281 222 143 169 202 148 145 147 204 226 209 255 202 160 163 158 164 149 130 149 101 81 359 322 275 291 337 145 205 215 187 139 103 78 56 54 97 107 82 56 15 334 7 22 356 42 67 257 270 224 173 187 243 252 221 233 248 223 205 225 245 255 261 260 254 247 241 237
280 277 275 277 277 269 254 244 231 213 201 189 178 162 144 135 238 202 231 307 292 221 174 175 208 151 158 148 205 201 181 236 200 168 169 156 163 185 195 191 166 111 307 252 261 330 304 223 218 182 188 164 121 77 32 0 46 98 90 84 47 324 358 348 307 54 223 251 261 145 151 219 245 244 236 242 252 240 220 220 228 244 266 271 264 251 244 238
283 276 270 270 273 268 253 242 219 198 190 179 175 156 118 218 232 187 197 242 237 229 127 106 94 126 132 126 245 206 174 231 194 173 182 144 172 229 246 228 172 172 258 209 285 331 294 297 307 155 237 188 164 155 204 264 142 150 143 130 147 137 44 275 273 278 266 269 255 157 162 266 272 257 229 225 230 231 229 232 240 256 273 280 279 263 249 239
280 273 264 264 266 255 248 244 212 188 180 174 170 138 124 227 227 165 195 219 229 356 49 94 89 95 134 182 235 193 181 239 176 153 186 140 172 237 242 233 201 158 111 137 155 191 251 294 217 184 214 177 182 194 168 139 143 178 156 139 157 152 171 224 230 244 274 291 262 188 200 230 246 283 231 215 228 238 244 252 255 267 274 275 274 259 246 238
272 270 263 262 256 240 240 240 208 182 175 173 167 150 202 220 202 167 206 209 205 344 50 66 94 105 225 243 263 221 208 235 146 135 186 178 187 214 203 206 197 162 135 174 223 170 226 269 243 210 132 162 182 194 121 110 138 213 122 121 180 175 170 214 218 203 261 313 273 201 223 222 213 281 271 242 270 259 261 269 266 275 275 263 254 245 239 236
266 269 265 262 256 239 232 224 198 182 180 175 172 214 218 218 173 183 196 172 180 157 121 2 103 132 248 260 261 239 212 221 158 143 213 212 220 219 206 212 193 180 177 180 200 177 215 274 273 41 353 180 182 181 135 133 181 175 136 173 212 164 137 167 268 335 63 290 269 213 246 274 317 278 274 359 286 262 256 269 268 274 258 238 239 238 235 234
259 265 264 261 261 246 221 204 189 188 194 187 211 222 215 210 187 183 169 156 161 138 140 210 207 179 217 231 221 208 183 213 191 174 211 218 234 203 196 241 199 188 200 198 204 212 203 266 252 156 204 235 185 166 59 62 135 134 181 209 184 108 102 114 247 332 28 257 272 261 255 269 278 268 300 353 266 255 244 241 259 267 235 228 236 235 235 234
251 260 263 262 260 243 218 195 184 193 200 201 236 235 216 199 199 182 161 157 145 136 162 211 208 184 194 204 221 189 171 192 183 184 205 211 246 185 159 213 204 195 207 204 215 250 177 248 267 166 197 249 59 134 179 13 123 143 202 226 117 142 194 117 159 247 245 246 274 282 278 266 206 208 212 204 230 242 237 219 229 245 226 226 234 233 232 232
245 251 260 262 252 225 208 187 184 196 201 202 232 238 221 208 217 193 176 170 157 161 182 214 210 195 182 184 198 185 185 195 177 183 209 197 233 197 163 194 205 202 206 196 199 239 139 218 259 261 256 273 44 178 192 192 78 89 222 310 41 159 182 161 161 185 182 230 270 288 296 279 209 182 184 196 210 215 209 204 222 230 222 225 230 229 230 228
235 239 253 253 228 194 188 182 188 197 200 215 227 236 241 230 234 207 192 186 182 186 193 209 205 212 206 194 206 195 194 202 179 189 224 199 222 232 198 195 176 181 196 184 195 201 111 214 237 282 335 233 197 209 196 181 162 146 182 226 232 175 119 190 236 141 147 207 252 276 286 274 221 160 176 190 199 200 195 202 219 224 223 226 228 229 230 229
221 238 247 228 192 177 175 176 196 205 206 234 238 249 271 236 228 218 208 206 214 216 195 177 193 206 202 200 220 193 182 200 190 199 234 214 219 241 210 194 165 136 132 134 213 206 168 201 212 208 229 218 222 239 194 184 172 172 191 197 195 178 123 192 249 223 163 205 211 188 269 273 242 147 175 183 184 196 200 204 213 219 221 224 226 229 231 230
206 231 234 199 182 176 170 173 214 209 212 226 227 238 238 234 230 223 221 221 228 241 228 201 206 209 200 195 196 176 179 198 199 205 232 221 216 225 203 187 171 151 146 161 218 197 141 136 211 229 227 227 252 303 160 204 186 200 216 195 181 174 161 190 229 226 175 218 209 121 267 272 245 154 185 187 184 205 204 198 205 219 222 225 227 229 230 230
206 223 216 188 188 179 167 179 232 202 233 231 227 246 243 245 249 211 216 221 221 219 224 227 213 211 223 201 174 185 194 207 208 200 217 236 225 226 204 176 166 156 153 168 241 155 118 124 219 249 279 321 327 352 80 76 64 252 241 190 173 199 201 202 213 188 164 217 193 119 254 261 251 166 203 196 189 229 217 204 211 221 225 230 230 229 230 228
210 219 205 189 189 181 174 199 213 201 233 229 227 242 241 251 249 219 206 207 207 201 216 230 216 210 228 192 189 212 197 206 227 204 208 239 233 224 203 177 168 171 188 193 180 169 177 178 189 237 281 306 314 331 349 309 187 222 238 192 193 217 218 221 78 131 227 210 160 159 249 253 252 135 118 330 263 265 249 224 223 228 229 232 232 230 229 226
209 212 197 189 186 187 197 217 197 199 217 217 226 231 232 253 243 229 224 217 216 209 213 235 215 205 220 192 210 232 207 214 240 219 212 232 246 222 196 185 183 190 209 207 180 163 178 201 179 208 237 238 242 243 225 211 193 218 247 207 208 217 211 215 219 201 228 206 152 202 244 256 272 248 153 317 269 257 260 243 233 237 237 236 234 230 228 224
195 187 183 186 189 198 217 229 225 220 207 208 226 222 218 236 242 231 227 228 236 236 246 260 216 205 221 206 218 238 227 228 240 235 231 226 238 326 199 196 198 202 217 216 179 162 171 223 201 218 228 226 238 241 185 129 151 206 224 217 217 217 209 216 229 217 226 225 209 233 243 265 274 262 248 280 260 250 259 256 240 239 239 237 236 234 231 227
187 190 181 171 189 210 226 231 230 237 194 185 196 210 214 221 236 231 215 213 223 221 234 269 226 213 224 209 215 235 229 231 237 239 246 237 236 313 261 211 218 221 239 237 185 172 184 234 220 228 233 233 246 248 187 146 188 208 214 221 224 219 208 214 228 227 224 228 240 245 247 257 262 261 261 265 261 261 265 264 251 245 244 240 238 235 229 224
195 204 196 185 178 200 215 218 217 217 208 193 197 214 217 216 219 218 205 202 206 199 203 242 229 223 224 207 207 233 224 231 239 236 241 240 229 269 276 245 242 238 249 271 200 177 195 239 232 233 239 244 253 251 206 173 213 214 209 223 225 216 209 212 227 231 225 224 241 249 249 248 254 259 263 261 260 260 268 274 270 256 248 240 233 229 223 219
200 201 198 197 197 200 207 211 209 209 214 214 215 223 226 226 225 215 177 172 211 199 195 218 228 223 223 215 213 228 221 227 237 235 235 235 215 185 220 246 245 224 207 212 235 177 181 243 244 240 251 253 252 251 224 197 234 239 230 236 229 213 212 217 227 232 228 230 244 251 252 253 256 260 259 262 265 265 272 279 272 251 242 233 226 223 221 220
207 203 199 201 210 214 212 212 205 205 214 215 220 226 227 232 233 222 172 179 209 200 195 219 231 216 208 217 221 230 230 227 236 240 222 209 209 193 205 228 220 185 204 211 240 196 197 240 248 245 259 255 251 252 235 217 234 242 248 250 238 206 213 229 232 235 234 239 245 250 255 259 261 261 257 263 271 273 274 273 262 252 244 232 226 224 222 222
219 216 209 203 209 211 211 210 199 202 214 208 216 225 225 232 233 228 214 210 218 214 195 214 229 219 201 217 222 231 234 231 239 245 229 199 204 208 208 210 195 183 212 209 188 182 194 226 244 236 250 252 252 250 230 221 235 246 250 252 242 214 221 235 237 230 225 235 244 249 254 257 260 265 264 264 267 266 265 263 261 259 251 235 228 227 226 226
228 228 219 213 216 202 201 210 201 202 212 204 211 220 220 227 230 226 235 228 223 225 215 205 216 222 212 219 224 230 234 235 239 244 244 243 235 227 233 234 211 198 195 186 188 193 186 208 223 216 240 253 253 217 177 159 237 254 248 245 238 230 234 241 248 241 230 228 237 244 246 250 259 269 269 267 263 256 256 256 257 258 253 241 235 233 231 232